Race Results for
Bump & Grind at Oak Mountain AMBC
Birmingham, AL
(Event Information)
View By:
Cross Country on 06/05/2005

Note: Ranking points are NOT upgrade points. An explanation of ranking points can be found here.


Men - Youth Series - Training Wheels

 Place Points NameCity, StateTime USAC #BibTeam
DNF DANSON PAIKER     271 -
DNF JACK HORTON     719 -
DNF LYDIA GOFFI     262 -
DNF ERIK REEN     270 -
DNF GAGE PARKER     711 -
DNF BRAD LEWIS     715 -
DNF ALEX HERSHBINE     263 -
DNF DALTON PENDERGRASS     724 -
DNF AMELIA SEYS     731 -
DNF ANDREW LEE     259 -
DNF AMANDA GUSNARD     713 UNCLE TERRY
DNF ANDREW BAXTER     720 -

Men - Youth Series - JR - 11-12

 Place Points NameCity, StateTime USAC #BibTeam
1 COLBY SHAW   0:11:28  726 -
2 TAYLOR DAVIS   0:11:30  721 -
3 ISAAC STANLEY   0:12:06  265 -
4 NICK MORRISON   0:14:42  712 -

Men - Youth Series - JR - 5-6

 Place Points NameCity, StateTime USAC #BibTeam
1 WARREN LARGE   0:17:20  254 -
2 Guy Griffies   0:17:29  252 -
3 JOHN DAVID BIRDSONG   0:17:37  267 -
4 EVAN MCPHERSON   0:19:08  717 -
5 ELIJAH ROTENBERRY   0:21:27  730 -
6 BRITTON REMBERT   0:25:25  253 -
DNF BLAKE LEE     258 -
DNF ANTONIO KIRKLIN-ALONSO     725 -
DNF LUKE GOFFI     264 -
DNF TAYLOR BROWN     707 -
DNF DREW HENDREN     701 -
DNF STERLING YARBROUGH     708 -

Men - Youth Series - JR - 7-8

 Place Points NameCity, StateTime USAC #BibTeam
1 ELI PERDUE   0:14:39  261 -
2 CAMERON ZAMOT   0:14:44  703 -
3 BEN HENDREN   0:14:53  700 -
4 WILLIAM SCHUMMER   0:15:12  710 -
5 DALTON GRUBBS   0:15:15  256 -
6 NICK SHAW   0:15:35  727 -
7 WESLEY BROWN   0:15:48  706 -
8 DJ LIEPERT   0:19:10  722 -
9 BRANDON LEE   0:19:13  257 -
10 TREY HAMMETT   0:19:46  723 -
11 CLAYBORN TRAYAL   0:21:29  269 -
DNF Sam Patton     251 -
DNF HUNTER YARBROUGH     268 -

Men - Youth Series - JR - 9-10

 Place Points NameCity, StateTime USAC #BibTeam
1 TREVER WEST   0:12:11  714 -
2 LOGAN MCPHERSON   0:12:17  716 -
3 CLAY CONKUE   0:12:27  718 -
4 Alexander Free   0:20:32  250 -
5 CAMBELL DIX   0:22:36  274 -

Men - SP - Junior - 1-18

 Place Points NameCity, StateTime USAC #BibTeam
1 Boris Simmonds   Birmingham, AL1:24:34 224868  1415 -
2 Matthew Grigsby   1:29:41  1301 Cahaba Cycles
3 ZACHARY SPANN   1:42:32  1493 -
4 Aron Altmark   1:52:56  1303 Bike Link
DNF ADAM HENSON     1516 -

Men - SP - Senior - 19-24

 Place Points NameCity, StateTime USAC #BibTeam
1 CASEY MANGER   1:13:23  1450 OUTDOOR CHATTANOOGA
2 Ryan Reeves   1:18:50 209696  1302 -
3 Ethan Quehl   Loganville, GA1:19:56 175816  1517 KENDA/APPALACHEE CYCLE
4 Brooks Branham   New Orleans, LA1:22:14 203790  1304 University of New Orleans
5 TY MAGNER   1:26:21  1451 GEORGIA VELO
6 Joseph Bolton   Fairhope, AL1:35:36 193893  1305 -
7 TOMMY GORDON   1:38:39  1535 -
8 JOSH LEAGUE   2:00:15  1457 -
DNF LYN WILLIAMS     1452 OUTDOOR CHATTANOOGA

Men - SP - Senior - 25-29

 Place Points NameCity, StateTime USAC #BibTeam
1 Bret Pacheco   Asheville1:11:13 213288  1393 -
2 Seth Ellis   Mi Wuk Village, CA1:11:17 220745  1394 -
3 SEAN CRICHTON   1:12:00  1417 BICYCLES ECT.
4 Matthew Foxenberger   Tampa, FL1:12:02 204310  1311 CBE
5 GREG RODRIQUEZ   1:18:30  1498 -
6 DAN MILLER   1:19:43  1546 LITESPEED ADVENTURE
7 Mark Morgan   1:19:48  1306 -
8 Tre' Haydel   Baton Rouge, LA1:20:35 211794  1391 -
9 James Halford   Huntsville, AL1:21:17 180643  1525 -
10 Scott Harrington   Sausalito, CA1:22:43 15164  1487 -
11 KYLE BOUDREAUX   1:23:18  1390 DELTA RACING
12 Trey Commander   Chattanooga, TN1:23:48 221491  1307 Outdoor Chattanooga / SCV
13 Chris Boothe   Morris, AL1:24:56 210387  1440 CAHABA CYCLES
14 Jacob Stone   Thompson's Station, TN1:26:23 209108  1401 MURRAY STATE UNIVERSITY
15 MATT ROBERTS   1:26:41  1497 -
16 JEFF BOSWELL   1:26:43  1434 MERIDIAN VELO
17 CHRIS WADE   1:29:56  1510 NEABC
18 WILL THOMPSON   1:31:14  1414 -
19 Bret Alexander   1:34:05  1313 SORBA-Chattanooga
20 ROBERT STEWART   1:38:40  1396 -
21 Sean Smith   1:39:41  1310 -
22 David Chandler   1:40:23  1309 -
DNF Joseph Dabbs   Homewood, AL 218784  1308 -
DNF Adam Jones   Wilmington, NC 122160  1314 GA Velo/Hub Bikes

Men - SP - Master - 30-34

 Place Points NameCity, StateTime USAC #BibTeam
1 Greg Gilbert   Marietta, GA1:15:58 13226  1329 Aaron's/L5Flyers
2 JONATHAN ROBBINS   1:16:08  1532 -
3 Michael Ghiorso   Pensacola, FL1:16:45 206992  1408 BIKES PLUS
4 Anthony Janik   1:17:14  1331 Bicycles etc.
5 FAIRS MALKL   1:18:20  1542 CAHABA/HOMEWOOD CYCLE
6 James Wiant   1:19:49  1389 -
7 David Muse   Cumming, GA1:20:06 161462  1458 BICYCLE OUTFITTERS
8 William Ford   Cleveland, TN1:20:09 209539  1332 Outdoor Chattanooga/SCV
9 MICHA MORRISON   1:21:59  1463 GNAC
10 DAN LOXTON   1:22:26  1460 -
11 GEOFE LEONARD   1:22:49  1491 -
12 JEREMY POLK   1:23:16  1515 -
13 KEVIN SUGGS   1:23:58  1319 -
14 William Morehead   Jackson, TN1:24:04 105869  1466 JACKSON SPOKES
15 James Allen   1:24:07  1316 -
16 Ladd Dunwoody   Marietta, GA1:24:43 10226  1528 KOVACHI WHEELS
17 JADE ANDERSON   1:25:10  2753 -
18 JEFF BRASWELL   1:25:37  1545 -
19 eric spina   1:25:44  1333 -
20 BRAD CANNON   1:27:38  1446 -
21 Glen Slater   1:28:08  1502 -
22 JASON HARIKA   1:31:52  1480 -
23 CHRIS SHIM   1:32:36  1526 -
24 ANDRE PENE   1:32:39  1428 -
25 Joseph Heintz   1:33:01  1312 -
26 Steve Canode   Lucedale, MS1:33:46 200937  1323 -
27 Timothy Spence   1:34:50  1317 -
28 jon myrick   1:34:55  1326 -
29 Chad Hendren   1:34:57  1538 -
30 TIM BOYD   1:35:03  1443 WOOD N WAVE
31 Raymond Benedict   1:35:54  1328 NOMAMBO
32 JASON CAMPBELL   1:37:41  1447 -
33 thomas payne   1:39:53  1325 -
34 JASON WORLEY   1:40:55  1488 -
35 GRAY PHILLIPS   1:41:16  1505 -
36 Toby Cortez   1:41:53  1327 NOMAMBO
37 Bill Andrews   1:45:47  1330 -
38 ALEXANDIER COHN   1:46:45  1504 -
39 Eric Mullins   1:51:26  1321 -
40 Andreas Stoll   2:04:59  1320 Trail-Surfer
41 Christopher Joy   2:15:12  1322 -
DNF Scott Borne   Covington, LA 228867  1324 -
DNF Brian Baxter   Nashville, TN 210883  1449 GRAN FONDO CYCLES
DNF Tagg Rogers     1318 Cadence 120

Men - SP - Master - 35-39

 Place Points NameCity, StateTime USAC #BibTeam
1 Larry Crook   Talking Rock, GA1:14:31 8192  1409 -
2 Christopher Cundiff   Owens Cross Roads, AL1:16:20 138418  1459 MOBA/ 54-MED
3 TOM SPENCER   1:17:52  1536 -
4 David Darden   Birmingham, AL1:17:59 173143  1342 -
5 Matthew Johnson   Jacksonville, AL1:19:03 161456  1506 BBC RACING
6 William Moore   Huntsville, AL1:19:46 227496  1344 -
7 STEVE JULIAN   1:20:23  1483 SOUTH GA. CYCLING
8 Charles Weckel   Troutville, VA1:21:02 113129  1448 WESTBANK CYCLERY
9 Mike Trumpfheller   Arlington, VA1:22:20 207396  1341 Chain Reaction
10 SEAN MANAGO   1:22:46  1418 BICYCLES ECT
11 LEON NOLEN   1:23:43  1520 GC
12 DAVID UHLMAN   1:23:47  1471 -
13 Robert Vachon   Huntsville, AL1:23:49 208925  1519 BICYCLE WORLES
14 Alexander McCall   1:24:02  1343 Bay City Breakers
15 Steven Wells   Germantown, TN1:24:24 217564  1335 -
16 G Todd Park   Madison, SD1:25:47 205620  1507 ADDICTIVE CYCLES
17 SCOTT GRUBBS   1:25:49  1422 -
18 CURT THOMPSON   1:26:06  1436 -
19 DAVID FORSHEE   1:26:47  1472 SMOKY MOUNTAIN BICYCLES
20 JOHN MCELROY   1:27:08  1455 BICYCLES UNLIMITED
21 TRACEE POLCIN   1:27:08  1501 -
22 Cary Watkins   Ridgeland, MS1:28:05 170307  1439 PRO BIKE CYCLING TEAM
23 DAN LOGAN   1:29:40  1511 -
24 CHEL MITCHELL   1:30:34  1405 -
25 Andy Pesterfield   1:31:14  1336 -
26 Jackson Smith   Pflugerville, TX1:32:23 40700  1334 Team Action
27 STAN LEWIS   1:32:43  1467 -
28 ROB DIPRIZIO   1:33:42  1421 -
29 LEE KLOSTESMON   1:35:59  1489 MOBILE
30 Lonny Pendergrass   Fort Payne, AL1:36:00 208827  1346 little river cycles & outdoors
31 Boatner Blankenstein   1:39:49  1338 -
32 Kris Shields   1:39:52  1337 Red Rock
33 TROY MOORE   1:43:43  1456 KHAOS
34 Greg Welch   1:44:00  1345 -
35 JOE WENNING   1:49:40  1492 BIKE LINK
36 Chris Byrd   1:50:20  1340 Khaos
37 Tim Mott   1:51:09  1339 -
38 DANNY WILLIAMS   2:08:14  1432 -
39 Mike Cowles   2:10:37  1347 -
40 SPENCER HADDOCK   2:12:44  1539 -
DNF JAMES SANDS     1527 -

Men - SP - Master - 40-44

 Place Points NameCity, StateTime USAC #BibTeam
1 Destry LeBrun   Pensacola, FL1:17:01 211692  1407 BIKE SPLUS/ HAIL CONSTRUCTION
2 Joseph (Todd) Clifton   Lawrenceburg, TN1:18:29 184255  1348 Columbia Cycling Club
3 Jeffrey Haines   Birmingham, AL1:21:13 171040  1522 GC CYCLING
4 Gary Brown   Cumming, GA1:24:00 160089  1411 CHEROKEE BIKES
5 Noel Zamot   Fpo Ae, AE1:24:59 48612  1354 Chain Reaction Cycles
6 Mark Fasczewski   Greensboro, NC1:25:06 112145  1540 -
7 Butch Carter   Dickson, TN1:25:13 169443  1465 COLUMBIA CYCLING
8 Edward Hamilton   1:26:11  1353 Cycle Escape-Montgomery
9 DON SUTTON   1:26:22  1490 -
10 D Connelly   1:26:49  1357 -
11 Richard Smith   Gainesville, GA1:27:55 207350  1473 BIKETOWN USA
12 Kenny Sipes   Flaherty, KY1:28:22 176930  1392 OUTDOOR VENTURE
13 Greg Bryant   1:31:00  1350 -
14 Mark French   Louisville, KY1:34:02 128970  1355 Scheller's Fitness & Cycling
15 ROBIE PACE   1:34:29  1444 WOOD-N-WAVE
16 Rick Pumphrey   Marietta, GA1:34:46 28843  1500 FREE FLITE
17 Don Blankenstein   1:35:51  1352 Natchez Bicycle Club
18 MARC OHLER   1:37:25  1445 DIAMONDBACK RACING
19 Tom Snellgrove   1:37:45  1387 BMW of Chattanooga
20 MAL THOMPSON   1:40:03  2770 -
21 Angel Gonzalez   1:40:44  1356 -
22 ROBERT ZINGARELLI   1:47:39  1469 GCSC
23 BOBBY STREIP   1:47:42  1423 -
24 DON COLLIER   1:58:10  1402 -
DNF Jon Harbert     1351 -
DNF GREG CASTEEL     1395 PILOT/CEDAR BLUFF CYCLES
DNF Larry Dunn   Memphis, TN 224112  1349 Shimanonucleosis

Men - SP - Master - 45-49

 Place Points NameCity, StateTime USAC #BibTeam
1 Jesse Greer   Chapmansboro, TN1:17:50 187570  1413 WOOD N WAVE
2 James Strader   Greenville, KY1:18:49 179900  1499 WOOD N WAVE
3 Paul VanKooten   Red Bank, TN1:19:20 178931  1441 OUTDOOR CHATTANOOGA
4 Jack Murbach   1:19:23  1362 Titus
5 BOB SCHLEMMER   1:19:24  1521 -
6 David Drenning   Huntsville, AL1:20:41 114656  61 -
7 Mark Patterson   Powell, TN1:21:17 131286  1397 -
8 MICHAEL COUNCIL   1:22:15  1412 -
9 David Thomas   Brookwood, AL1:22:22 88122  1359 -
10 Jeff Bostic   Bessemer, AL1:24:32 173103  1358 MDC Racing
11 Jim Bailey   Covington, GA1:26:59 209669  1400 -
12 Woody Robbins   1:27:56  1361 GC Cycling
13 Steve Smith   1:28:29  1363 Red Rock
14 Dwight Bond   Smyrna, TN1:29:38 111119  1437 MOBA /LOVELESS
15 EDWARD BISHOP   1:29:51  1435 -
16 TIMOTHY PARTON   1:35:04  1431 -
17 LEE KINGRY   1:42:32  1404 -
18 D Kurre   1:43:43  1364 -
DNF Michael Seibel     1360 -

Men - SP - Master - 50-59

 Place Points NameCity, StateTime USAC #BibTeam
1 Doug Goodwin   1:26:55  1377 -
2 Steve McAuley   Lancing, TN1:29:21 190451  1438 TEAM MOAB LOVELESS
3 DOUGLAS DAUGHHETEE   1:30:16  1475 GCC
4 Philip Cheek   Marietta, GA1:32:30 137704  1430 CYCLE WORKS
5 JERRY RYAN   1:32:33  1476 -
6 RICK WILLIAMS   1:34:38  1378 -
7 Kevin Trent   Powell, TN1:39:33 195825  1420 TREMTO CORSO
8 DYRON SMYTH   1:42:51  1508 CYCLE ESCAPE
9 RICHARD DILLON   1:50:53  1482 -
10 JIM HENRY   1:51:03  1433 HOMEWOOD CYCLE
11 James Haycraft   Pensacola, FL1:55:48 144614  1534 DRAGON SPORTS
12 KEITH BRYANT   2:07:32  1485 -
13 GERALD WEBER   2:39:11  1376 -
14 JOHN ZINGARELLI   2:40:52  1468 -
DNF Karl de Santos   Atlanta, GA 188502  1454 BICYCLING OUTFITTERS
DNF Duane Dobesh   Roswell, GA 9641  1379 Cycleworks

Men - Singlespeed

 Place Points NameCity, StateTime USAC #BibTeam
1 Calvin Partlow   Fort Walton Beach, FL1:11:55 27352  1464 FORD RACING
2 Christopher Wyatt   Roswell, GA1:15:19 87149  1315 Maxxis/Shimano/Rennin
3 David Witherow   Peachtree City, GA1:15:49 38707  1533 VELO VOODOO
4 BRIAN FUHRMANN   1:18:17  1494 ROUTE 66 BYCYCLES
5 Eric Ritenour   Decatur, GA1:23:24 173557  1388 Meemans/Cycleworks
6 PAUL WOODLARD   1:24:39  1442 -
7 KEN MELVIN   1:29:35  1514 -
8 JOHN KARRASCH   1:30:11  1523 -
9 RICHARD HOODENPYCE   1:33:08  1419 BUMP
10 JASON BECK   1:37:05  1512 -
11 THOM ALLEWERT   1:43:27  1416 RELIC RACING
DNF CHRIS EDMONDS     1524 -
DNF KARL PETER     1543 -

Men - PR/SM

 Place Points NameCity, StateTime USAC #BibTeam
1 Jason Sager   Ogden, UT2:11:48 31059  HOTEL SAN JOSE
2 Thomas Turner   Canton, GA2:14:23 103410  25 CANNONDALE
3 Raymond Hall   Tulsa, OK2:14:26 149104  14 TREK VW
4 Earl Bradley   Indialantic, FL2:19:40 133173  23 TREK/VW
5 Charles Pendry   Raleigh, NC2:20:37 106096  19 INLAND CONSTRUCTION
6 Daniel Matheny   Colorado Springs, CO2:22:08 145481  11 WOOD N WAVE
7 Daniel Corum   Winston Salem, NC2:24:39 92797  17 PACELINE BIKES
8 Anthony Slowinski   Louisville, KY2:26:29 121030  -
9 Bryan Fawley   Denton, TX2:27:04 198394  28 WHEELS IN MOTION
10 Travis Werts   Brentwood, TN2:29:11 159867  12 SCOTT USA
11 Jeremiah Swanson   Portland, OR2:33:07 137708  15 OUTSPOKIN
12 German Bermudez   Colombia2:35:09 194439  10 -
13 Dustin Greer   Cedar Hill, TN2:36:27 178240  13 WOOD N WAVE
14 Charles Storm   Sanford, NC2:37:46 110876  18 INLAND CONSTRUCTION
15 Christopher Phillips   Morgantown, WV2:53:43 178828  21 GARY FISHER
DNF Neil Hankins   Memphis, TN 14923  20 -
DNF Troy Adams   Sylva, NC 157975  26 KRYSTAL/SCV
DNF Andrew Mills   Orlando, FL 159112  24 TREK-VW
DNF William Fyfe   Huntsville, AL 172779  Bike Link
DNF Andrew Johnston   Lilburn, GA 18075  Cycle Youth

Men - EX - Junior - 1-18

 Place Points NameCity, StateTime USAC #BibTeam
1 Christian Fontaine   Monroe, GA2:30:01 195115  121 APPALACHEE CYCLE
2 Zachary Ball   Tallahassee, FL2:34:38 144436  59 -
3 Jaymes Halgat   Monroe, GA2:43:47 195114  122 APALACHEE/CYCLEYOUTH
4 David Bishop   Signal Mountain, TN2:56:39 194664  134 SCENIC CITY VELO
5 Michael Weber   Knoxville, TN3:12:11 184414  102 -
DNF Shane Danford   Ocala, FL 175210  58 -

Men - EX - Senior - 19-29

 Place Points NameCity, StateTime USAC #BibTeam
1 MICHAEL CUMMINGS   2:22:31  123 BIKE TOWN USA/CYCLEYOUTH
2 Ryan Woodall   Ocala, FL2:23:41 153440  95 SANTOS BIKE SHOP
3 Mike Purvis   Louisville, KY2:28:07 186611  78 -
4 Tim Barrett   Roswell, GA2:31:02 152291  127 SUVARU/FISHER/FREE FLITE
5 Ben Richardson   Perryville, KY2:34:25 176926  74 LINDSEY WILSON COLLEGE
6 MIKAH RUST   2:38:16  117 KNOX VELO
7 Scott Burton   Roanoke, VA2:39:50 192566  131 BIKELINK
8 Robert Rutter   New Orleans, LA2:48:26 219418  50 -
9 Owen Simpson   Swannanoa, NC2:55:27 206017  112 SOMKY MOUTNAIN BICYCLES
DNF Kyle Sumner   Fort Thomas, KY 184955  79 WOOD N WAVE
DNF Joshua Rosby   Baton Rouge, LA 171261  75 DELZA RACING
DNF Josh Gerlach   Louisville, KY 225964  76 LINDSEY WILSON
DNF Brad Atkins   Brandon, MS 204797  72 PRO BIKE
DNF Scott Kuppersmith   Ridgeland, MS 213439  114 PRO BIKE
DNF Jafer Beizer   Conyers, GA 192280  80 LAND ROVER
DNF Luke Rozanski   Black Mountain, NC 186103  96 SANTOS BIKE SHOP

Men - EX - Master - 30-34

 Place Points NameCity, StateTime USAC #BibTeam
1 Shey Lindner   Covington, GA2:27:02 195152  51 bikeman.com
2 jon McLaughlin   2:29:14  54 -
3 D Tyler Grahovec   Atlanta, GA2:30:02 179499  84 PACESETTER
4 Cleve Blackwell   Greenville, SC2:34:03 144020  99 GA VELO
5 Ryan Borger   Tampa, FL2:35:43 211691  52 Carrollwood Bicycle Emporium
6 Ron Williams   Auburn, AL2:36:18 148667  73 GEORGIA VELO
7 C Jason Lake   Tuscaloosa, AL2:38:13 166185  120 DANEIL CITY
8 Jason Buttner Howard   Chattanooga, TN2:46:24 106530  109 OUTDOOR CHATTANOOGA
9 CHRIS HOVATTER   2:47:28  83 ATLANTA PRO BIKES
10 Brian Lord   Covington, GA2:50:12 182406  113 BOR/SOUTH GEORGIA CYCLING
11 Chad Smith   Pensacola, FL3:03:03 203300  106 -
12 Dave Tingley   Panama City, FL3:07:11 158940  53 Red Hook Brewery
DNF Paul Wallace   Murfreesboro, TN 104406  124 MOAB/LOVELESS
DNF CHRISTIAN LEASK     92 OUTDOORS INC
DNF Jason Crosby   Decatur, GA 148361  81 GA SPINAL HEALTH

Men - EX - Master - 35-39

 Place Points NameCity, StateTime USAC #BibTeam
1 Joe Dunlop   Athens, GA2:26:34 43212  86 ATLANTA PRO
2 Zdenek Fiebinger   Franklin2:29:04 183301  94 OUTSPOKIN
3 Tyson Geren   Chattanooga, TN2:29:14 137722  89 OUTDOOR CHATTANOOGA
4 Richard Guest   Birmingham, AL2:33:10 73674  128 -
5 David Reed   Bath, MI2:36:15 170308  126 COULMBIA CYCLING CLUB
6 Patrick Jones   Atlanta, GA2:37:07 153186  82 Atlanta Pro
7 Brady Rogers   Atlanta, GA2:40:00 144524  100 GAVELO
8 DAVID BATON   2:46:21  91 BLACK STALLION RACING
9 Joseph Bowers   Ooltewah, TN2:48:26 4438  87 CUMBERLAND TRANSIT
10 David Homansky   Marietta, GA2:53:21 151965  132 PACESETTER STEEL
11 Ed Baltes   Powder Springs, GA2:53:38 209714  118 B.O.R
DNF Jeff Welp   Lilburn, GA 164467  56 Competitive Instincts
DNF Keith Lucas   Custer, KY 209624  77 OUTDOOR VENTURE
DNF James Hendry   Jacksonville, FL 138975  88 RALEIGH
DNF Andrew Danford     55 -
DNF john hoover     57 -
DNF Jay Clinton   Asheville, NC 83913  90 BIO WHEELS
DNF BRIAN BEATTIE     137 HOARN'S CYCLING

Men - EX - Master - 40-44

 Place Points NameCity, StateTime USAC #BibTeam
1 Kenneth Marshall   Columbia, TN2:28:07 22604  64 ColumbiaCyclingClub
2 John Myers   East Point, GA2:30:26 164658  115 MYERS MECHANICAL
3 GREG TURNER   2:30:59  116 VELO VOO DOO
4 Will Scruggs   Chickamauga, GA2:31:03 102889  97 CITY VELO
5 Bob Umbel   Melbourne Beach, FL2:31:57 185888  85 YETI CYCLES-RUDY PROJECT
6 Stephen Wilson   Benton, KY2:32:39 140437  108 WOOD-N-WAVE
7 Eric Purdue   Clarkston, GA2:37:15 209716  62 Cycleworks
8 RICHARD BLUMENTHAL   2:37:50  129 -
9 Rick Harmon   Columbia, TN2:38:16 15115  135 CUMBERLAND TRANSIT
10 Robbie Burger   Pensacola, FL2:39:05 201808  65 Bikes Plus/PORC
11 Brad Wunderlich   Louisville, KY2:40:22 39083  1365 Team Louisville
12 Tim Cash   Chattanooga, TN2:42:29 6392  138 OUTDOOR CHATTANOOGA
13 Rob Hope   Tuscaloosa, AL2:48:16 201983  136 DCBC
14 Mark Poore   Cookeville, TN2:53:20 94493  110 COLUMBIA CYCLING CLUB
15 Casey Fannin   Birmingham, AL2:55:52 173088  60 -
16 Chris Melehan   Canton, GA3:01:13 186229  130 SUBARU/FISHER/FREE FLITE
DNF Terry Duran   Hailey, ID 82946  139 SCOTT
DNF Rick Pena   Jacksonville, FL 40894  104 -
DNF Greg Schmidt   Indialantic, FL 195518  63 -

Men - EX - Master - 45-99

 Place Points NameCity, StateTime USAC #BibTeam
1 Marcus Watters   Altamonte Springs, FL2:35:48 105245  66 Sotuheastern Trek
2 Hardwick Gregg   Helena, AL2:38:48 14094  67 -
3 Raymond Wilson   Little Rock, AR2:46:49 38574  101 Orbea
4 Richard Sederberg   Batesville, AR2:55:07 171312  93 PARKSIDE/SUBWAY

Men - Clydesdale - Beginner

 Place Points NameCity, StateTime USAC #BibTeam
1 Jeff Ingle   Dalton, GA0:46:45 228062  2743 SORBA-NWGA
2 ALVIN GOODMAN   0:51:18  2742 GEORGIA CLYDESDALE
3 BOBBY PARKER   0:52:30  2787 -
4 RUSSELL SANDIDGE   0:56:35  2754 -
DNF paul maxwell     2728 cage foot

Men - Clydesdale - Sport

 Place Points NameCity, StateTime USAC #BibTeam
1 Craig Cooper   Longmont, CO1:21:25 78512  1529 BIKE PEDLAR
2 Francis Fessler   Brentwood, TN1:24:17 218743  1399 COLUMBIA CYCLING CLUB
3 Adam Barkeloo   Franklin, TN1:24:43 225843  1426 COLUMBIA CYCLING CLUB
4 Igor Nikolic   1:25:14  1367 -
5 Mark Grobe   Fort Payne, AL1:26:40 220878  1374 LITTLE RIVER CYCLE
6 BILL RIDDLE   1:26:42  1484 SOUTH GEORGIA CYCLING
7 DAVID LARGE   1:27:41  1410 -
8 Bill Reasor   1:28:24  1373 Georgia Clydesdales
9 MARK VIKCERS   1:31:57  1429 -
10 KEITH HORTON   1:32:53  1530 -
11 Brandon Brown Brown   1:33:33  1372 -
12 BILLY BEANE   1:33:41  1541 VICLOUS CYCLE
13 Jim Mabry   1:35:04  1366 -
14 JOHN MCGEE   1:35:37  1486 -
15 Charlie Grice   1:35:41  1368 -
16 BILL STOVALL   1:39:44  1503 FREEFLITE/NARC
17 David Hiott   Clanton, AL1:42:13 223580  1425 CHAIN REACTION
18 Ted Rapp   Nashville, TN1:42:16 85799  1537 CUMBERLAND TRANST
19 Adam Bush   Pollocksville, NC1:43:37 43456  1518 -
20 MARC MILLARD   1:49:23  1424 CAHABA CYCLES
21 Eric Grau   1:52:15  1371 SORBA Chattanooga
22 CURIS TRAYAL   1:53:08  1509 -
23 JAMES RHODEN   1:54:36  1495 -
24 Chris Steichen   1:54:47  1370 -
26 MARTY WHITENER   2:06:22  1496 -
27 Timothy Easterling   Green Cove Springs, FL2:11:38 159155  1369 North Florida Bicycle Club
DNF Mark Goffi     1375 -
DNF Phil Barnridge     1386 -

Men - BG - Junior Olympics - 1-10

 Place Points NameCity, StateTime USAC #BibTeam
1 Jansen Lindner   Covington, GA0:07:29 222461  2736 -
2 LOGAN MCPHERSON   0:08:18  2782 -
3 Ben Klein   0:09:30  2737 -
4 WILLIAM SCHLEMINER   0:10:16  2793 -
DNF CLAY CONKLE     2781 -

Men - BG - Junior Olympics - 1-12

 Place Points NameCity, StateTime USAC #BibTeam
1 JULIAN GAINES   0:10:31  2755 WOOD N WAVE
2 Taylor Davis   0:14:03  2739 -
DNF Harris Nickoles     2738 Druid City Bicycle Club

Men - BG - Junior Olympics - 1-14

 Place Points NameCity, StateTime USAC #BibTeam
1 Everett Lindner   Covington, GA0:25:05 222457  2735 -
2 James Venters   0:25:07  2734 -
3 Troy Tillman   Chattanooga, TN0:26:42 210079  2758 OUTDOOR CHATTANOOGA
4 Paul Drenning   0:27:02  2733 -
5 Wes Drenning   0:39:14  2732 -

Men - BG - Junior Olympics - 1-16

 Place Points NameCity, StateTime USAC #BibTeam
1 THOMAS GAINES   0:41:50  2756 -
2 zac epperson   0:45:19  2701 -
3 JACOB THOMASON   0:47:55  2771 -
4 DEAN STOVALL   0:49:03  2751 -
5 Axel Smith   Gainesville, GA1:14:35 217969  2772 BIKETOWN USA
6 JORDAN HERSHBINE   1:21:52  2768 -

Men - BG - Junior Olympics - 1-18

 Place Points NameCity, StateTime USAC #BibTeam
1 Shawn scott   0:41:30  2702 sunshine bicycle co.
2 LANDON WILSON   0:42:56  2764 WOOD-N-WAVE

Men - BG - Senior - 19-24

 Place Points NameCity, StateTime USAC #BibTeam
1 MATTHEW DOWNING   0:43:43  2779 -
2 CLAY CLEVELAND   0:47:38  2749 -
3 JASON DONALDSON   0:47:51  2762 -
4 Patrick Quilter   Baton Rouge, LA0:47:55 226259  2704 LSU
5 JEFF VINIARD   0:49:27  2746 -
6 BEN SCOTT   0:52:11  2778 -
7 Christopher Dang   1:00:14  2703 -
8 Timothy Eichelberger   1:05:46  2705 HK RACING

Men - BG - Senior - 25-29

 Place Points NameCity, StateTime USAC #BibTeam
1 MICHAEL RILEY   0:40:00  2767 FORUM
2 RICARDO TOPETE   0:41:16  2777 MSMBC
3 KYLE BUTTS   0:42:04  2760 CAHABA CYCLES
4 clayton Taylor   0:42:20  2709 -
5 AARAN CHERAMIE   0:45:41  2765 -
6 Brent Cutshall   Tampa, FL0:46:21 208872  2710 Carrollwood Bicycle Emporium
7 JEREMY BELCHER   0:47:11  2792 -
8 JOSEPH HOWE   0:48:40  2773 -
9 Josh Forbus   0:49:02  2707 -
10 Jon Pierce   0:50:11  2706 -
11 Jon Paolone   0:52:59  2708 -
12 Thomas Nelson   0:57:35  2711 HK Racing

Men - BG - Master - 30-34

 Place Points NameCity, StateTime USAC #BibTeam
1 Todd Hatfield   Jacksonville, FL0:40:47 209380  2715 Bicycles Etc
2 Jayce Powell   0:47:11  2714 -
3 Pascal Caputo   0:50:43  2712 -
4 JOHN SMITH   0:55:07  2791 -

Men - BG - Master - 35-39

 Place Points NameCity, StateTime USAC #BibTeam
1 Greg Elrod   0:43:31  2720 -
2 CLARK HUDDLE   0:46:14  2790 -
3 JASON MAXWELL   0:47:42  2776 -
4 Tom Hammett   0:49:03  2716 -
5 Brad YARBROUGH   0:49:57  2718 -
6 Timothy Fiquett   0:51:48  2719 -
7 RUSSELL AUTREY   0:59:37  2713 -
8 David Roberson   0:59:44  2717 -
9 DAVID ABBITT   1:00:05  2775 -

Men - BG - Master - 40-44

 Place Points NameCity, StateTime USAC #BibTeam
1 DOUG MCNAB   0:42:45  2761 -
2 Rodney Barnes   0:44:54  2727 CCR
3 Todd Eubanks   Southside, AL0:50:23 223206  2780 -
4 Gary Nix   0:51:15  2724 -
5 DARREN SWANSON   0:54:48  2785 -
6 JOHN WYS   0:58:40  2741 -
7 Todd Masters   1:01:24  2722 -
8 Ricky Nickoles   1:03:08  2721 Druid City Bicycle Club
9 David Grigsby   1:03:30  2723 -
10 Derrick Davis   1:04:10  2725 -
11 Eric Boyd   1:06:47  2726 -

Men - BG - Master - 45-49

 Place Points NameCity, StateTime USAC #BibTeam
1 RANDY WESSON   0:52:42  2747 -

Men - BG - Master - 50-59

 Place Points NameCity, StateTime USAC #BibTeam
1 MICK WILLIAMS   0:48:06  2786 -
2 Gary Falls   0:49:35  2730 Druid City Bicycle Club
3 FLETCHER SCOTT   0:51:28  2784 -
4 KEN JENKINS   0:55:20  2788 -
5 Richard Russell   0:56:48  2729 Druid City Bicycle Club

Women - Youth Series - JR - 11-12

 Place Points NameCity, StateTime USAC #BibTeam
1 TORI SUTTON   0:15:18  702 -

Women - Youth Series - JR - 5-6

 Place Points NameCity, StateTime USAC #BibTeam
1 SAVANNAH GRUBBS   0:21:53  255 -
DNF MADDIE MILLARD     260 CAHABA CYCLES

Women - Youth Series - JR - 7-8

 Place Points NameCity, StateTime USAC #BibTeam
1 SARAH GRAHOVEC   0:15:40  266 -
2 EMILY BROWN   0:17:27  705 -
3 NATALIE BROWN   0:19:16  704 -

Women - Youth Series - JR - 9-10

 Place Points NameCity, StateTime USAC #BibTeam
1 SUZANNAH ROTENBERRY   0:13:06  728 -
2 ALEXANDRA MURPHY   0:13:16  272 -
3 REBEKAH ROTENBERRY   0:15:27  729 -
4 RYDER MURPHY   0:15:33  273 -

Women - SP - Junior - 1-18

 Place Points NameCity, StateTime USAC #BibTeam
1 EMILY PARKER   1:38:30  2752 -
DNF Lanie Drenning     68 -

Women - SP - Senior - 19-29

 Place Points NameCity, StateTime USAC #BibTeam
1 Maureen Kunz   Oakland, CA1:34:13 206973  1380 Scheller's Fitness & Cycling
2 KATHLEN MCCOMBS   1:38:40  1461 CBC
3 BROOKE HENDERSON   1:42:23  1481 AUBURN FLYERS
4 JENNIFER MOREHEAD   1:53:27  1474 JACKSON SPOKES
DNF LeAnn Alexander   Chattanooga, TN 222234  1453 OUTDOOR CHATTANOOGA

Women - SP - Master - 30-39

 Place Points NameCity, StateTime USAC #BibTeam
1 Nicki Sutherland   Columbus, GA1:41:39 223185  1547 MIKE'S BIKES
2 Trish Albert   Smyrna, GA1:45:42 140671  1384 OTR Cycing-Strenflex
3 Lena Yarbrough   Natchez, MS1:46:25 201848  1381 -
4 Deborah Pierce   Decatur, GA1:48:30 213643  1544 CYCLEWORKS
5 Carol Cooper   Thompsons Station, TN1:48:36 225966  1531 COLUMBIA
6 REBECCA STANLEY   1:51:23  1470 WEST GA FLYERS
7 Victoria McHugh   2:04:37  2731 -
8 WENDI CESMERISES   2:31:33  1462 DEFEET/PIEDMONT

Women - SP - Master - 40-99

 Place Points NameCity, StateTime USAC #BibTeam
1 Lynne Barkeloo   Franklin, TN1:30:40 225842  1427 COLUMBIA CYCLING CLUB
2 JACKIE RYAN   1:37:45  1513 -
3 Stacey Davis   1:46:59  1383 -
4 Barbara Murbach   2:13:50  1385 Ellsworth
5 SHERRY MEADOR   2:41:08  1398 -
DNF ERIN MASON     1406 -
DNF MAUREEN KINGRY     1403 -

Women - EX

 Place Points NameCity, StateTime USAC #BibTeam
1 Anne Craig   Jacksonville, FL2:51:30 181515  103 -
2 Erin Disterheft   Eau Claire, MI2:58:07 192951  69 Team Billy/Litespeed
3 Shannon Mathis   Nashville, TN3:01:39 186727  111 DC FEET
4 Sara Welp   Lilburn, GA3:01:58 164468  70 Titus Cycles
5 Dayna Cotter   Atlanta, GA3:03:19 188968  98 FORUM CYCLING
6 Stacey Ramirez   Pelham, AL3:09:39 137981  133 GC CYCLING
7 Samantha Williams   Myersville, MD3:12:14 209805  107 OUTSPOKIN BICYCLES
8 Melinda Steele   Austin, TX3:19:58 168893  71 Team Hotel San Jose
9 Linell Schultz   Ringgold, GA3:31:27 153532  125 NWG SORBA
DNF Krista Park   Madison, SD 203842  119 -
DNF Rebecca Leeb   Atlanta, GA 177072  105 TITUS CYCLES

Women - BG - Junior Olympics - 1-12

 Place Points NameCity, StateTime USAC #BibTeam
1 Hayley-Rae Tillman   Chattanooga, TN0:14:01 210084  2759 OUTDOOR CHATTANOOGA

Women - BG - Junior Olympics - 1-14

 Place Points NameCity, StateTime USAC #BibTeam
1 KENZIE WILSON   0:25:02  2763 WOOD-N-WAVE
2 AMANDA MEADOR   0:41:30  2744 -

Women - BG - Senior - 19-29

 Place Points NameCity, StateTime USAC #BibTeam
1 ANN TURNER   0:49:22  2783 -
2 STEPHANIE BUTLER   0:51:51  2789 -

Women - BG - Master - 30-39

 Place Points NameCity, StateTime USAC #BibTeam
1 MARIA LONG   0:53:13  2748 -
2 Amy Fessler   Franklin, TN0:55:23 218742  2745 COLUMBIA CYCLING CLUB
3 Lisbeth Weinheimer   1:00:14  2740 -

Women - BG - Master - 40-99

 Place Points NameCity, StateTime USAC #BibTeam
1 HEIDI POORE   0:50:10  2769 COLUMBIA BYCLING
2 Dale Tillman   Chattanooga, TN0:50:18 210075  2757 OUTDOOR CHATTANOOGA
3 SUSAN WILLIAMS   1:20:18  2766 -

Women - Pro

 Place Points NameCity, StateTime USAC #BibTeam
1 Shonny Vanlandingham   Captain Cook, HI2:26:58 89955  Luna Chix
2 Erin Winter   Athens, GA2:41:50 146174  27 Orbea/ Copper Canyon Lodges
3 Leah Tingley   Columbus, OH2:43:30 35866  US Armed Forces
4 Paula Burks   Chattanooga, TN2:51:33 5542  -
5 Rachel Massey   Shamilar, FL2:54:00 139331  22 -
6 Ellen Carroll   Atlanta, GA2:56:52 108074  29 FORUM CYCLING
DNF Kimberly Flynn   Greensboro, NC 122752  16 DEFEET
DNF Shae Rainer   Georgetown , TX 176425  HOTEL SAN JOSE

Report missing or incorrect license numbers

Volkswagen
USACDFCUOREOSMOSierra NevadaShimanoSpyBonk Breaker
UCI USA Cycling is the official governing body for all disciplines of competitive cycling in the United States. The 501c3, membership-based organization aims both to achieve sustained success in international cycling competition and to grow competitive cycling in America while delivering an exceptional customer experience.
View Children's Online Privacy Protection Policy
US Olympic Committee